Regional Weather Roundup
Issued by NWS

Home | Current Version | Previous Version | Text Only | Print | Product List | Glossary On
Versions: 1 2 3 4 5 6 7 8 9 10 11 12 13 14 15 16 17 18 19 20 21 22 23 24 25 26 27 28 29 30 31 32 33 34 35 36 37 38 39 40 41 42 43 44 45 46 47 48 49 50
000
ASUS44 KOUN 170000
RWROK

WEATHER ROUNDUP FOR OKLAHOMA
NATIONAL WEATHER SERVICE NORMAN OK
700 PM CDT WED AUG 16 2017

NOTE: "FAIR" INDICATES FEW OR NO CLOUDS BELOW 12,000 FEET WITH NO
      SIGNIFICANT WEATHER AND/OR OBSTRUCTIONS TO VISIBILITY.

OKZ001>007-009>012-014-015-017-170100-
NORTHWEST OKLAHOMA AND THE PANHANDLE

CITY           SKY/WX    TMP DP  RH WIND       PRES   REMARKS
GAGE           SUNNY     90  61  37 N12       29.88F HX  90
6HR MIN TEMP:  85; 6HR MAX TEMP:  92;

GUYMON         SUNNY     86  55  34 N10       29.97S
ENID/WOODRING  PTSUNNY   90  73  58 S8        29.76F HX  98
$$

OKZ016-021>023-033>039-044-045-170100-
SOUTHWEST OKLAHOMA

CITY           SKY/WX    TMP DP  RH WIND       PRES   REMARKS
LAWTON/REGL    SUNNY     91  76  61 S10       29.82F HX 103
6HR MIN TEMP:  87; 6HR MAX TEMP:  92;

LAWTON/FT SILL SUNNY     90  78  69 S14       29.82S HX 104
FREDERICK      MOSUNNY   93  76  57 S12       29.80S HX 105
CLINTON        SUNNY     90  71  53 S18       29.84F HX  96
HOBART         SUNNY     92  73  53 S16       29.84S HX 100
ALTUS AFB      SUNNY     91  75  59 S10       29.82S HX 102
$$

OKZ018>020-024>031-170100-
CENTRAL OKLAHOMA

CITY           SKY/WX    TMP DP  RH WIND       PRES   REMARKS
OKLAHOMA CITY  MOSUNNY   87  73  62 S16       29.82F HX  94
6HR MIN TEMP:  86; 6HR MAX TEMP:  90;

OKC/WILEY POST MOSUNNY   88  75  65 S20       29.81F HX  97
OKC/TINKER AFB MOSUNNY   86  74  65 S16       29.83F HX  94
STILLWATER     SUNNY     89  74  60 S20G28    29.77F HX  98
GUTHRIE        MOSUNNY   90  75  61 S12       29.78F HX 100
$$

OKZ008-013-054>072-170100-
NORTHEAST OKLAHOMA

CITY           SKY/WX    TMP DP  RH WIND       PRES   REMARKS
TULSA          MOSUNNY   87  75  67 S17G30    29.78F HX  96
6HR MIN TEMP:  86; 6HR MAX TEMP:  90;

TULSA/JONES    MOSUNNY   87  74  64 S16G25    29.79F HX  95
PONCA CITY     CLOUDY    89  73  59 SW10      29.77S HX  97
BARTLESVILLE   SUNNY     87  76  69 S5        29.77F HX  97
MUSKOGEE       SUNNY     85  77  77 S10       29.84F HX  95
$$

OKZ032-040>043-046>053-073>077-170100-
SOUTH CENTRAL/SOUTHEAST OKLAHOMA

CITY           SKY/WX    TMP DP  RH WIND       PRES   REMARKS
MCALESTER      CLOUDY    88  77  69 S6        29.86F HX 100
$$




USA.gov is the U.S. government's official web portal to all federal, state and local government web resources and services.